"Pseudo-MPEC" for C1CD665

Created 2026 Mar 12 5:35:06 UT using Find_Orb

Click here for an explanation of pseudo-MPECs

 
 Astrometry: 
     C1CD665 0C2026 02 13.36079209 04 56.711+14 41 17.05   ~3BH5 21.18GVNEOCPF51
     C1CD665 0C2026 02 13.40064309 05 16.617+14 45 49.97   ~3BH5 21.53GVNEOCPF51
     C1CD665 0C2026 02 14.37403209 15 01.197+16 36 37.38   ~3BHZ 21.80GVNEOCPF52
     C1CD665 0C2026 02 14.38601609 15 07.485+16 38 00.80   ~3BHZ 21.13GVNEOCPF52
     C1CD665 0C2026 02 19.38330110 10 51.804+25 48 12.11   ~35GKx20.62GVNEOCPF52
     C1CD665 0C2026 02 19.39490710 10 59.123+25 49 25.36   ~35GK 21.26GVNEOCPF52
     C1CD665 0C2026 02 19.40716010 11 06.737+25 50 40.83   ~35GK 21.20GVNEOCPF52
     C1CD665*1C2026 02 24.42481611 10 47.730+32 45 26.60   ~2OBK 21.84GVNEOCPV00
     C1CD665 1C2026 02 24.43044311 10 51.236+32 45 46.30   ~2OBK 21.58GVNEOCPV00
     C1CD665 1C2026 02 24.44161311 10 58.213+32 46 25.43   ~2OBK 21.84GVNEOCPV00
     C1CD665 1C2026 02 24.51564111 11 45.496+32 50 34.26   ~2OCo 21.90GVNEOCPV00
     C1CD665 1C2026 02 24.51643411 11 46.014+32 50 36.85   ~2OCo 21.92GVNEOCPV00
     C1CD665 1C2026 02 24.51722811 11 46.518+32 50 39.66   ~2OCo 22.03GVNEOCPV00
     C1CD665 1C2026 02 24.51802111 11 47.044+32 50 42.14   ~2OCo 21.86GVNEOCPV00
     C1CD665 0C2026 02 24.51806011 11 47.160+32 50 42.20   ~2OD5 22.0 RVNEOCP291
     C1CD665 0C2026 02 24.52233011 11 49.930+32 50 55.80   ~2OD5 22.3 RVNEOCP291
     C1CD665 0C2026 02 24.52663011 11 52.770+32 51 09.00   ~2OD5 21.9 RVNEOCP291
     C1CD665 1C2026 02 26.42721711 33 29.866+34 37 13.37   ~2QAZ 22.14GVNEOCPV00
     C1CD665 1C2026 02 26.42801011 33 30.308+34 37 15.46   ~2QAZ 22.26GVNEOCPV00
     C1CD665 1C2026 02 26.42880611 33 30.794+34 37 17.58   ~2QAZ 22.25GVNEOCPV00
     C1CD665 1C2026 02 26.42959911 33 31.252+34 37 19.88   ~2QAZ 21.99GVNEOCPV00
     C1CD665 KC2026 03 09.44459813 06 06.864+38 07 21.23   ~39Bo 23.9 GWNEOCPH01
     C1CD665 KC2026 03 09.45564513 06 10.075+38 07 18.98   ~39Bo 23.0 GWNEOCPH01

Station data:
(291) LPL/Spacewatch II  (N31.961669 W111.599905)  US/Arizona.  Observers J.
   V. Scotti, R. S. McMillan. 1.8-m f/2.7 reflector + CCD.
(F51) Pan-STARRS 1, Haleakala  (N20.707234 W156.255910)  US/Hawaii.
   Observers J. Herman, T. Lowe, P. Minguez, A. Schultz, I. Smith. Measurers
   K. Chambers, T. de Boer, J. Fairlamb, H. Gao, M. Huber, C.-C. Lin, E.
   Magnier, Y. Ramanjooloo, R. Wainscoat, R. Weryk. 1.8-m Ritchey-Chrétien +
   CCD.
(F52) Pan-STARRS 2, Haleakala  (N20.707382 W156.255910)  US/Hawaii.
   Observers J. Herman, T. Lowe, P. Minguez, A. Schultz, I. Smith. Measurers
   K. Chambers, T. de Boer, J. Fairlamb, H. Gao, M. Huber, C.-C. Lin, E.
   Magnier, Y. Ramanjooloo, R. Wainscoat, R. Weryk. 1.8-m Ritchey-Chrétien +
   CCD.
(H01) Magdalena Ridge Observatory, Socorro  (N33.984833 W107.189333)  US/New
   Mexico.  Observers W. H. Ryan, E. V. Ryan. Measurer W. H. Ryan. 2.4-m
   f/8.9 reflector + CCD.
(V00) Kitt Peak-Bok  (N31.963125 W111.600190)  US/Arizona. Measurers T.
   Beuden, V. F. Carvajal, D. Fay, J. B. Fazekas, D. C. Fuls, A. R. Gibbs, A.
   D. Grauer, H. Gröller, J. K. Hogan, R. A. Kowalski, S. M. Larson, G. J.
   Leonard, D. Rankin, R. L. Seaman, F. C. Shelly, K. W. Wierzchoś. 2.25-m
   reflector + 4x4K mosaic CCD.

Orbital elements:  C1CD665
   Perihelion 2026 Feb 17.314996 +/- 0.00149 TT =  7:33:35.6 (JD 2461088.814996)
Epoch 2026 Mar  9.0 TT = JDT 2461108.5   Earth MOID: 0.0394   Ma: 0.0991
M  12.671696037 +/- 0.0045          (J2000 ecliptic)             AutoNEOCP
n   0.643723320 +/- 0.000182        Peri.    3.355458 +/- 0.0016
a   1.328423512 +/- 0.000251        Node   144.680349 +/- 0.00015
e   0.22686677 +/- 0.00013          Incl.    5.424126 +/- 0.0027
P   1.531/559.236d         H 27.90  G  0.15   U  7.0
q 1.027048360 +/- 2.11e-5    Q 1.629798664 +/- 0.00048
22 of 23 observations 2026 Feb. 13-Mar. 9; mean residual 0".30
Residuals in arcseconds: 
260213 F51  .41-  .29+    260224 V00  .41-  .04-    260224 291  .48+  .90-    
260213 F51  .20+  .07-    260224 V00  .36-  .01+    260226 V00  .02-  .24+    
260214 F52  .12+  .23-    260224 V00  .32-  .05+    260226 V00  .27-  .23+    
260214 F52  .09+  .04-    260224 V00  .33-  .05+    260226 V00  .00   .25+    
260219 F52( 1.5-  .92-)   260224 V00  .52-  .28+    260226 V00  .05-  .45+    
260219 F52  .13-  .13+    260224 V00  .44-  .18+    260309 H01  .03+  .11-    
260219 F52  .18+  .09-    260224 291  .71+  .11+    260309 H01  .07+  .11-    
260224 V00  .48-  .11+    260224 291  .33+  .17-    

Ephemerides (geocentric):
Date (UTC) HH   RA             Dec           delta  r     elong  mag " sig PA
---- --------  ------------   ------------  ------ ------ -----  --- --------
2026 03 12 06  13 20 49.516   +37 59 45.33  .06689 1.0435 136.9 23.7 .350 167
2026 03 12 07  13 21 01.197   +37 59 32.94  .06697 1.0435 136.9 23.7 .351 167
2026 03 12 08  13 21 12.839   +37 59 20.40  .06704 1.0436 136.9 23.7 .352 168
2026 03 12 09  13 21 24.444   +37 59 07.72  .06712 1.0436 136.9 23.7 .352 168
2026 03 12 10  13 21 36.011   +37 58 54.90  .06720 1.0437 136.8 23.7 .353 168
2026 03 12 11  13 21 47.541   +37 58 41.93  .06728 1.0438 136.8 23.7 .354 168
2026 03 12 12  13 21 59.033   +37 58 28.81  .06736 1.0438 136.8 23.7 .354 168
2026 03 12 13  13 22 10.487   +37 58 15.55  .06744 1.0439 136.8 23.7 .355 168
2026 03 12 14  13 22 21.904   +37 58 02.15  .06752 1.0439 136.8 23.7 .356 168
2026 03 12 15  13 22 33.284   +37 57 48.61  .06760 1.0440 136.8 23.7 .356 169
2026 03 12 16  13 22 44.627   +37 57 34.93  .06768 1.0440 136.7 23.7 .357 169
2026 03 12 17  13 22 55.933   +37 57 21.11  .06776 1.0441 136.7 23.8 .357 169
2026 03 12 18  13 23 07.201   +37 57 07.15  .06784 1.0442 136.7 23.8 .358 169
2026 03 12 19  13 23 18.433   +37 56 53.06  .06792 1.0442 136.7 23.8 .359 169
2026 03 12 20  13 23 29.628   +37 56 38.82  .06800 1.0443 136.7 23.8 .359 169
2026 03 12 21  13 23 40.786   +37 56 24.45  .06808 1.0443 136.7 23.8 .360 169
2026 03 12 22  13 23 51.908   +37 56 09.94  .06816 1.0444 136.7 23.8 .361 169
2026 03 12 23  13 24 02.993   +37 55 55.30  .06824 1.0445 136.6 23.8 .361 170
2026 03 13 00  13 24 14.041   +37 55 40.52  .06832 1.0445 136.6 23.8 .362 170
2026 03 13 01  13 24 25.054   +37 55 25.60  .06840 1.0446 136.6 23.8 .363 170
2026 03 13 02  13 24 36.030   +37 55 10.56  .06848 1.0446 136.6 23.8 .363 170
2026 03 13 03  13 24 46.969   +37 54 55.38  .06856 1.0447 136.6 23.8 .364 170
2026 03 13 04  13 24 57.873   +37 54 40.07  .06864 1.0448 136.6 23.8 .365 170
2026 03 13 05  13 25 08.741   +37 54 24.63  .06872 1.0448 136.6 23.8 .365 170
2026 03 13 06  13 25 19.573   +37 54 09.05  .06880 1.0449 136.5 23.8 .366 171
2026 03 13 07  13 25 30.369   +37 53 53.35  .06888 1.0449 136.5 23.8 .367 171
2026 03 13 08  13 25 41.130   +37 53 37.51  .06896 1.0450 136.5 23.8 .367 171
2026 03 13 09  13 25 51.854   +37 53 21.55  .06904 1.0451 136.5 23.8 .368 171
2026 03 13 10  13 26 02.544   +37 53 05.46  .06912 1.0451 136.5 23.8 .369 171
2026 03 13 11  13 26 13.198   +37 52 49.24  .06920 1.0452 136.5 23.8 .369 171
2026 03 13 12  13 26 23.816   +37 52 32.90  .06928 1.0453 136.5 23.8 .370 171
2026 03 13 13  13 26 34.400   +37 52 16.43  .06936 1.0453 136.4 23.8 .371 171
2026 03 13 14  13 26 44.948   +37 51 59.83  .06944 1.0454 136.4 23.8 .372 172
2026 03 13 15  13 26 55.461   +37 51 43.11  .06952 1.0454 136.4 23.8 .372 172
2026 03 13 16  13 27 05.939   +37 51 26.26  .06960 1.0455 136.4 23.8 .373 172
2026 03 13 17  13 27 16.382   +37 51 09.29  .06968 1.0456 136.4 23.8 .374 172
2026 03 13 18  13 27 26.791   +37 50 52.20  .06976 1.0456 136.4 23.8 .374 172
2026 03 13 19  13 27 37.164   +37 50 34.98  .06984 1.0457 136.4 23.8 .375 172
2026 03 13 20  13 27 47.504   +37 50 17.64  .06992 1.0457 136.3 23.8 .376 172
2026 03 13 21  13 27 57.808   +37 50 00.19  .07000 1.0458 136.3 23.8 .376 173
2026 03 13 22  13 28 08.079   +37 49 42.60  .07008 1.0459 136.3 23.8 .377 173
2026 03 13 23  13 28 18.314   +37 49 24.90  .07016 1.0459 136.3 23.8 .378 173
2026 03 14 00  13 28 28.516   +37 49 07.08  .07025 1.0460 136.3 23.8 .378 173
2026 03 14 01  13 28 38.684   +37 48 49.14  .07033 1.0461 136.3 23.8 .379 173
2026 03 14 02  13 28 48.817   +37 48 31.08  .07041 1.0461 136.3 23.8 .380 173
2026 03 14 03  13 28 58.916   +37 48 12.91  .07049 1.0462 136.3 23.9 .381 173
2026 03 14 04  13 29 08.982   +37 47 54.61  .07057 1.0462 136.2 23.9 .381 174
2026 03 14 05  13 29 19.014   +37 47 36.20  .07065 1.0463 136.2 23.9 .382 174